Tracking 30995 objects as of 7-Jul-2025
HD Live streaming from Space Station
objects crossing your sky now

CZ-2F DEB

Track CZ-2F DEB now!
10-day predictions


NORAD ID: 53364
Int'l Code: 2022-093H
Perigee: 465.9 km
Apogee: 579.0 km
Inclination: 50.0 °
Period: 94.9 minutes
Semi major axis: 6893 km
RCS: Unknown
Launch date: August 4, 2022
Source: People's Republic of China (PRC)
Launch site: Jiuquan Satellite Launch Center, China (JSC)

Note: This is SATELLITE DEBRIS
Your satellite tracking list
Your tracking list is empty




NASA's NSSDC Master Catalog

Two Line Element Set (TLE):
1 53364U 22093H   25186.75475030  .00004961  00000-0  24397-3 0  9998
2 53364  50.0230  85.3793 0081981 113.9768 246.9795 15.16867397160732
Source of the keplerian elements: AFSPC